UVA7801 DNMA-DNAA

Flight info

Callsign UVA7801
Flight time 1h 20m
Altitude 24000
Route POSIB UG626 JOS UJ332 USKIP DCT OGBIS
Aircraft DH8D/M-SDE2E3FGRY/H

Departure

Time 2026-05-01 09:17
Airport Maiduguri International Airport (DNMA)

Arrival

Time 2026-05-01 10:38
Airport Nnamdi Azikiwe International Airport (DNAA)
Time Latitude Longitude Altitude Speed Heading
2026-05-01 08:45 11.85364 13.08381 1103 ft 0 kts 272°
2026-05-01 09:09 11.85364 13.08380 1103 ft 0 kts 272°
2026-05-01 09:10 11.85363 13.08391 1103 ft 0 kts 273°
2026-05-01 09:10 11.85364 13.08399 1103 ft 1 kts 237°
2026-05-01 09:10 11.85373 13.08405 1102 ft 0 kts 182°
2026-05-01 09:11 11.85378 13.08405 1102 ft 0 kts 181°
2026-05-01 09:11 11.85377 13.08405 1102 ft 0 kts 181°
2026-05-01 09:12 11.85368 13.08403 1102 ft 2 kts 216°
2026-05-01 09:12 11.85366 13.08367 1103 ft 9 kts 269°
2026-05-01 09:13 11.85362 13.08280 1103 ft 13 kts 255°
2026-05-01 09:13 11.85404 13.08201 1101 ft 13 kts 315°
2026-05-01 09:13 11.85469 13.08138 1101 ft 12 kts 316°
2026-05-01 09:13 11.85479 13.08075 1101 ft 9 kts 231°
2026-05-01 09:14 11.85440 13.08028 1102 ft 7 kts 227°
2026-05-01 09:14 11.85399 13.07983 1103 ft 9 kts 228°
2026-05-01 09:14 11.85332 13.07907 1104 ft 22 kts 227°
2026-05-01 09:14 11.85190 13.07756 1106 ft 31 kts 225°
2026-05-01 09:15 11.85055 13.07598 1105 ft 27 kts 228°
2026-05-01 09:15 11.84932 13.07468 1106 ft 23 kts 225°
2026-05-01 09:15 11.84821 13.07355 1106 ft 21 kts 225°
2026-05-01 09:15 11.84717 13.07261 1107 ft 18 kts 206°
2026-05-01 09:16 11.84628 13.07200 1108 ft 7 kts 201°
2026-05-01 09:16 11.84609 13.07165 1109 ft 6 kts 317°
2026-05-01 09:16 11.84643 13.07179 1108 ft 4 kts 40°
2026-05-01 09:17 11.84802 13.07352 1106 ft 56 kts 47°
2026-05-01 09:17 11.85219 13.07801 1106 ft 129 kts 44°
2026-05-01 09:17 11.86722 13.09587 2311 ft 176 kts 52°
2026-05-01 09:18 11.87495 13.10491 3389 ft 165 kts 47°
2026-05-01 09:18 11.89367 13.11822 4528 ft 179 kts
2026-05-01 09:19 11.90934 13.09936 5427 ft 210 kts 264°
2026-05-01 09:19 11.90254 13.08644 5860 ft 212 kts 215°
2026-05-01 09:19 11.88979 13.07954 6359 ft 211 kts 203°
2026-05-01 09:20 11.86414 13.06070 6897 ft 249 kts 224°
2026-05-01 09:20 11.84135 13.03294 7912 ft 257 kts 234°
2026-05-01 09:21 11.82144 13.00287 9003 ft 259 kts 239°
2026-05-01 09:21 11.81192 12.98708 9542 ft 260 kts 240°
2026-05-01 09:21 11.79346 12.95453 10486 ft 268 kts 242°
2026-05-01 09:22 11.77527 12.92080 11449 ft 277 kts 242°
2026-05-01 09:22 11.75682 12.88567 12448 ft 285 kts 242°
2026-05-01 09:23 11.74761 12.86792 12966 ft 288 kts 242°
2026-05-01 09:23 11.72888 12.83161 14109 ft 290 kts 243°
2026-05-01 09:24 11.71008 12.79495 15177 ft 296 kts 243°
2026-05-01 09:24 11.70059 12.77641 15750 ft 297 kts 243°
2026-05-01 09:24 11.68136 12.73880 16850 ft 302 kts 243°
2026-05-01 09:25 11.66200 12.70091 18046 ft 303 kts 243°
2026-05-01 09:25 11.64252 12.66276 19278 ft 305 kts 243°
2026-05-01 09:26 11.63275 12.64364 19882 ft 306 kts 243°
2026-05-01 09:26 11.61310 12.60518 21056 ft 309 kts 243°
2026-05-01 09:26 11.60318 12.58577 21682 ft 309 kts 243°
2026-05-01 09:27 11.58328 12.54684 22864 ft 312 kts 242°
2026-05-01 09:27 11.57335 12.52740 23411 ft 315 kts 242°
2026-05-01 09:27 11.56316 12.50747 23845 ft 322 kts 242°
2026-05-01 09:28 11.55246 12.48657 23953 ft 338 kts 242°
2026-05-01 09:28 11.54141 12.46497 23971 ft 355 kts 242°
2026-05-01 09:28 11.52967 12.44205 23970 ft 367 kts 242°
2026-05-01 09:28 11.51791 12.41915 23952 ft 363 kts 242°
2026-05-01 09:29 11.49492 12.37443 23956 ft 350 kts 242°
2026-05-01 09:29 11.48368 12.35252 23960 ft 345 kts 242°
2026-05-01 09:30 11.46171 12.30968 23962 ft 338 kts 242°
2026-05-01 09:30 11.45086 12.28853 23968 ft 334 kts 242°
2026-05-01 09:30 11.42952 12.24695 23973 ft 329 kts 242°
2026-05-01 09:31 11.41897 12.22636 23974 ft 327 kts 242°
2026-05-01 09:31 11.40840 12.20576 23978 ft 325 kts 242°
2026-05-01 09:31 11.38774 12.16550 23978 ft 321 kts 242°
2026-05-01 09:32 11.37735 12.14526 23977 ft 319 kts 242°
2026-05-01 09:32 11.35699 12.10559 23984 ft 315 kts 242°
2026-05-01 09:32 11.34691 12.08596 23987 ft 313 kts 242°
2026-05-01 09:33 11.33685 12.06638 23985 ft 312 kts 242°
2026-05-01 09:33 11.32678 12.04678 23988 ft 310 kts 242°
2026-05-01 09:33 11.30691 12.00811 23987 ft 306 kts 242°
2026-05-01 09:34 11.29700 11.98883 23992 ft 304 kts 242°
2026-05-01 09:34 11.28731 11.96998 23989 ft 303 kts 242°
2026-05-01 09:34 11.26787 11.93217 23983 ft 300 kts 242°
2026-05-01 09:35 11.25810 11.91318 23987 ft 298 kts 242°
2026-05-01 09:35 11.23904 11.87614 23984 ft 296 kts 242°
2026-05-01 09:35 11.22955 11.85769 23983 ft 294 kts 242°
2026-05-01 09:36 11.22002 11.83919 23985 ft 292 kts 242°
2026-05-01 09:36 11.21062 11.82092 23979 ft 291 kts 242°
2026-05-01 09:36 11.20121 11.80266 23978 ft 289 kts 242°
2026-05-01 09:36 11.19196 11.78470 23977 ft 288 kts 242°
2026-05-01 09:37 11.18265 11.76662 23978 ft 288 kts 242°
2026-05-01 09:37 11.16366 11.72971 23981 ft 299 kts 242°
2026-05-01 09:37 11.15389 11.71072 23978 ft 305 kts 242°
2026-05-01 09:38 11.13395 11.67203 23973 ft 316 kts 242°
2026-05-01 09:38 11.12364 11.65204 23974 ft 321 kts 242°
2026-05-01 09:38 11.11312 11.63165 23968 ft 326 kts 242°
2026-05-01 09:39 11.09180 11.59034 23957 ft 335 kts 242°
2026-05-01 09:39 11.08090 11.56923 23951 ft 338 kts 242°
2026-05-01 09:39 11.06986 11.54784 23945 ft 341 kts 242°
2026-05-01 09:40 11.05884 11.52651 23941 ft 344 kts 242°
2026-05-01 09:40 11.03641 11.48310 23937 ft 348 kts 242°
2026-05-01 09:40 11.02519 11.46137 23940 ft 350 kts 242°
2026-05-01 09:41 11.01385 11.43944 23933 ft 352 kts 242°
2026-05-01 09:41 10.99095 11.39515 23935 ft 354 kts 242°
2026-05-01 09:41 10.97949 11.37298 23931 ft 355 kts 242°
2026-05-01 09:42 10.96796 11.35070 23937 ft 356 kts 242°
2026-05-01 09:42 10.95644 11.32842 23934 ft 356 kts 242°
2026-05-01 09:42 10.93333 11.28379 23941 ft 357 kts 242°
2026-05-01 09:43 10.91022 11.23914 23940 ft 357 kts 242°
2026-05-01 09:43 10.89867 11.21686 23945 ft 357 kts 242°
2026-05-01 09:43 10.88695 11.19422 23948 ft 358 kts 242°
2026-05-01 09:44 10.86383 11.14962 23955 ft 358 kts 242°
2026-05-01 09:44 10.85216 11.12709 23958 ft 358 kts 242°
2026-05-01 09:44 10.84053 11.10468 23958 ft 358 kts 242°
2026-05-01 09:45 10.82902 11.08248 23960 ft 358 kts 242°
2026-05-01 09:45 10.80576 11.03764 23965 ft 358 kts 242°
2026-05-01 09:45 10.79427 11.01550 23971 ft 358 kts 242°
2026-05-01 09:46 10.78254 10.99291 23980 ft 358 kts 242°
2026-05-01 09:46 10.77102 10.97071 23985 ft 358 kts 242°
2026-05-01 09:46 10.75940 10.94834 23986 ft 358 kts 242°
2026-05-01 09:46 10.74779 10.92599 23990 ft 358 kts 242°
2026-05-01 09:47 10.73606 10.90341 23994 ft 358 kts 242°
2026-05-01 09:47 10.72452 10.88122 23992 ft 359 kts 242°
2026-05-01 09:47 10.71279 10.85876 23989 ft 359 kts 242°
2026-05-01 09:47 10.70091 10.83623 23985 ft 360 kts 242°
2026-05-01 09:48 10.68919 10.81401 23984 ft 360 kts 242°
2026-05-01 09:48 10.67737 10.79160 23986 ft 360 kts 242°
2026-05-01 09:48 10.66555 10.76920 23984 ft 360 kts 242°
2026-05-01 09:48 10.65367 10.74669 23983 ft 360 kts 242°
2026-05-01 09:49 10.64176 10.72409 23982 ft 361 kts 242°
2026-05-01 09:49 10.63001 10.70184 23981 ft 361 kts 242°
2026-05-01 09:49 10.61808 10.67922 23978 ft 361 kts 242°
2026-05-01 09:49 10.60632 10.65694 23977 ft 361 kts 242°
2026-05-01 09:50 10.59442 10.63439 23977 ft 361 kts 242°
2026-05-01 09:50 10.58254 10.61189 23978 ft 362 kts 242°
2026-05-01 09:50 10.57056 10.58920 23979 ft 362 kts 242°
2026-05-01 09:50 10.55874 10.56681 23980 ft 362 kts 242°
2026-05-01 09:51 10.54693 10.54441 23981 ft 362 kts 242°
2026-05-01 09:51 10.53502 10.52185 23985 ft 362 kts 242°
2026-05-01 09:51 10.52313 10.49932 23987 ft 362 kts 242°
2026-05-01 09:51 10.51126 10.47686 23987 ft 362 kts 242°
2026-05-01 09:52 10.49936 10.45432 23986 ft 362 kts 242°
2026-05-01 09:52 10.48747 10.43183 23983 ft 362 kts 242°
2026-05-01 09:52 10.47545 10.40908 23980 ft 362 kts 242°
2026-05-01 09:52 10.46361 10.38668 23978 ft 363 kts 242°
2026-05-01 09:53 10.45175 10.36424 23977 ft 363 kts 242°
2026-05-01 09:53 10.43970 10.34145 23974 ft 363 kts 242°
2026-05-01 09:53 10.42782 10.31897 23972 ft 363 kts 242°
2026-05-01 09:53 10.41584 10.29635 23968 ft 363 kts 242°
2026-05-01 09:54 10.40402 10.27401 23965 ft 363 kts 242°
2026-05-01 09:54 10.39207 10.25141 23965 ft 363 kts 242°
2026-05-01 09:54 10.38014 10.22888 23968 ft 363 kts 242°
2026-05-01 09:54 10.36812 10.20618 23968 ft 363 kts 242°
2026-05-01 09:55 10.35617 10.18361 23970 ft 363 kts 242°
2026-05-01 09:55 10.34428 10.16117 23973 ft 363 kts 242°
2026-05-01 09:55 10.33243 10.13880 23974 ft 363 kts 242°
2026-05-01 09:55 10.32045 10.11618 23976 ft 363 kts 242°
2026-05-01 09:56 10.30841 10.09347 23980 ft 363 kts 242°
2026-05-01 09:56 10.29655 10.07108 23983 ft 363 kts 241°
2026-05-01 09:56 10.28453 10.04843 23987 ft 363 kts 241°
2026-05-01 09:56 10.27266 10.02603 23989 ft 363 kts 242°
2026-05-01 09:57 10.26056 10.00323 23995 ft 363 kts 242°
2026-05-01 09:57 10.24865 9.98077 24002 ft 363 kts 242°
2026-05-01 09:57 10.23676 9.95837 24010 ft 362 kts 242°
2026-05-01 09:57 10.22482 9.93588 24018 ft 362 kts 242°
2026-05-01 09:58 10.21291 9.91344 24022 ft 362 kts 242°
2026-05-01 09:58 10.20099 9.89098 24020 ft 363 kts 242°
2026-05-01 09:58 10.18900 9.86842 24013 ft 363 kts 242°
2026-05-01 09:58 10.17702 9.84586 24017 ft 363 kts 242°
2026-05-01 09:59 10.16505 9.82333 24019 ft 363 kts 242°
2026-05-01 09:59 10.15305 9.80075 24022 ft 363 kts 242°
2026-05-01 09:59 10.14099 9.77805 24024 ft 363 kts 242°
2026-05-01 09:59 10.12907 9.75563 24023 ft 363 kts 242°
2026-05-01 10:00 10.11705 9.73303 24028 ft 363 kts 242°
2026-05-01 10:00 10.10504 9.71045 24033 ft 363 kts 242°
2026-05-01 10:00 10.09312 9.68804 24038 ft 363 kts 242°
2026-05-01 10:00 10.08102 9.66529 24037 ft 363 kts 242°
2026-05-01 10:01 10.06910 9.64288 24045 ft 363 kts 242°
2026-05-01 10:01 10.05711 9.62037 24049 ft 363 kts 242°
2026-05-01 10:01 10.04506 9.59773 24055 ft 363 kts 241°
2026-05-01 10:01 10.03305 9.57518 24060 ft 363 kts 242°
2026-05-01 10:02 10.02111 9.55275 24069 ft 363 kts 242°
2026-05-01 10:02 10.00905 9.53010 24080 ft 363 kts 242°
2026-05-01 10:02 9.99709 9.50767 24091 ft 363 kts 242°
2026-05-01 10:02 9.98513 9.48521 24096 ft 363 kts 242°
2026-05-01 10:03 9.97307 9.46259 24091 ft 363 kts 242°
2026-05-01 10:03 9.96106 9.44007 24088 ft 364 kts 242°
2026-05-01 10:03 9.94908 9.41759 24091 ft 364 kts 242°
2026-05-01 10:03 9.93691 9.39478 24088 ft 364 kts 242°
2026-05-01 10:04 9.92501 9.37246 24084 ft 364 kts 242°
2026-05-01 10:04 9.91294 9.34984 24082 ft 365 kts 241°
2026-05-01 10:04 9.90081 9.32711 24083 ft 364 kts 241°
2026-05-01 10:04 9.88863 9.30429 24090 ft 364 kts 241°
2026-05-01 10:05 9.87664 9.28183 24071 ft 365 kts 241°
2026-05-01 10:05 9.86444 9.25896 23824 ft 371 kts 241°
2026-05-01 10:05 9.85222 9.23602 23653 ft 375 kts 241°
2026-05-01 10:05 9.83971 9.21251 23441 ft 379 kts 241°
2026-05-01 10:06 9.82726 9.18915 23175 ft 372 kts 241°
2026-05-01 10:06 9.81517 9.16651 22936 ft 366 kts 242°
2026-05-01 10:06 9.80302 9.14374 22695 ft 361 kts 242°
2026-05-01 10:06 9.79124 9.12168 22457 ft 357 kts 242°
2026-05-01 10:07 9.77955 9.09976 22219 ft 354 kts 242°
2026-05-01 10:07 9.76786 9.07785 21991 ft 350 kts 241°
2026-05-01 10:07 9.75633 9.05624 21767 ft 347 kts 241°
2026-05-01 10:07 9.74495 9.03491 21544 ft 345 kts 241°
2026-05-01 10:08 9.72226 8.99239 21092 ft 341 kts 241°
2026-05-01 10:08 9.71088 8.97105 20869 ft 345 kts 241°
2026-05-01 10:08 9.69942 8.94954 20628 ft 350 kts 241°
2026-05-01 10:09 9.68782 8.92780 20391 ft 354 kts 241°
2026-05-01 10:09 9.67609 8.90580 20149 ft 358 kts 241°
2026-05-01 10:09 9.66425 8.88362 19907 ft 362 kts 241°
2026-05-01 10:09 9.65205 8.86076 19650 ft 366 kts 240°
2026-05-01 10:10 9.64153 8.83743 19368 ft 371 kts 252°
2026-05-01 10:10 9.63602 8.81200 19147 ft 372 kts 259°
2026-05-01 10:10 9.62653 8.76011 18633 ft 377 kts 259°
2026-05-01 10:11 9.62173 8.73387 18370 ft 379 kts 259°
2026-05-01 10:11 9.61693 8.70784 18102 ft 380 kts 259°
2026-05-01 10:11 9.61203 8.68145 17836 ft 381 kts 259°
2026-05-01 10:11 9.60712 8.65503 17561 ft 383 kts 259°
2026-05-01 10:12 9.60212 8.62827 17276 ft 384 kts 259°
2026-05-01 10:12 9.59719 8.60187 17006 ft 385 kts 259°
2026-05-01 10:12 9.58726 8.54886 16475 ft 385 kts 259°
2026-05-01 10:13 9.58223 8.52207 16196 ft 385 kts 259°
2026-05-01 10:13 9.57723 8.49551 15932 ft 385 kts 259°
2026-05-01 10:13 9.57224 8.46898 15653 ft 384 kts 259°
2026-05-01 10:14 9.56224 8.41585 15143 ft 382 kts 259°
2026-05-01 10:14 9.55731 8.38972 14868 ft 374 kts 259°
2026-05-01 10:14 9.55250 8.36435 14617 ft 364 kts 259°
2026-05-01 10:14 9.54783 8.33970 14373 ft 355 kts 259°
2026-05-01 10:15 9.54318 8.31516 14140 ft 348 kts 259°
2026-05-01 10:15 9.53872 8.29159 13910 ft 341 kts 259°
2026-05-01 10:15 9.53430 8.26829 13685 ft 336 kts 259°
2026-05-01 10:15 9.52993 8.24516 13456 ft 331 kts 260°
2026-05-01 10:16 9.52557 8.22248 13233 ft 327 kts 259°
2026-05-01 10:16 9.51903 8.20046 13015 ft 323 kts 251°
2026-05-01 10:16 9.50345 8.15810 12575 ft 317 kts 250°
2026-05-01 10:17 9.49581 8.13740 12369 ft 315 kts 250°
2026-05-01 10:17 9.48062 8.09608 11955 ft 311 kts 250°
2026-05-01 10:17 9.47317 8.07575 11750 ft 309 kts 250°
2026-05-01 10:18 9.45829 8.03511 11333 ft 307 kts 250°
2026-05-01 10:18 9.45084 8.01477 11128 ft 307 kts 251°
2026-05-01 10:18 9.44344 7.99452 10913 ft 306 kts 251°
2026-05-01 10:19 9.43608 7.97440 10709 ft 305 kts 251°
2026-05-01 10:19 9.42874 7.95432 10498 ft 305 kts 251°
2026-05-01 10:19 9.42137 7.93418 10282 ft 305 kts 251°
2026-05-01 10:20 9.40669 7.89403 9871 ft 304 kts 251°
2026-05-01 10:20 9.39930 7.87383 9659 ft 304 kts 251°
2026-05-01 10:20 9.39196 7.85376 9439 ft 304 kts 251°
2026-05-01 10:20 9.38460 7.83366 9221 ft 304 kts 251°
2026-05-01 10:21 9.37731 7.81373 9015 ft 304 kts 251°
2026-05-01 10:21 9.36267 7.77374 8598 ft 303 kts 251°
2026-05-01 10:21 9.35535 7.75376 8381 ft 303 kts 251°
2026-05-01 10:22 9.34073 7.71382 7980 ft 301 kts 251°
2026-05-01 10:22 9.32619 7.67414 7590 ft 299 kts 251°
2026-05-01 10:23 9.31895 7.65439 7385 ft 299 kts 251°
2026-05-01 10:23 9.30452 7.61502 6980 ft 297 kts 251°
2026-05-01 10:23 9.29745 7.59589 6764 ft 282 kts 251°
2026-05-01 10:24 9.28434 7.56029 6408 ft 267 kts 251°
2026-05-01 10:24 9.27129 7.52455 6061 ft 274 kts 251°
2026-05-01 10:25 9.25796 7.48817 5730 ft 278 kts 251°
2026-05-01 10:25 9.24486 7.45256 5312 ft 264 kts 251°
2026-05-01 10:26 9.23846 7.43525 5109 ft 260 kts 250°
2026-05-01 10:26 9.22855 7.42001 4798 ft 260 kts 222°
2026-05-01 10:26 9.19919 7.39844 4137 ft 263 kts 214°
2026-05-01 10:27 9.17007 7.37843 3645 ft 238 kts 214°
2026-05-01 10:27 9.14480 7.36066 3578 ft 210 kts 214°
2026-05-01 10:28 9.13287 7.35222 3568 ft 205 kts 214°
2026-05-01 10:28 9.10939 7.33561 3264 ft 204 kts 214°
2026-05-01 10:28 9.09814 7.32770 3015 ft 186 kts 214°
2026-05-01 10:29 9.07816 7.31358 2432 ft 160 kts 214°
2026-05-01 10:29 9.06953 7.30749 2217 ft 147 kts 214°
2026-05-01 10:30 9.05251 7.29537 1882 ft 148 kts 214°
2026-05-01 10:30 9.03589 7.28364 1526 ft 143 kts 214°
2026-05-01 10:31 9.01932 7.27193 1185 ft 150 kts 214°
2026-05-01 10:31 9.01916 7.27182 1183 ft 150 kts 214°
2026-05-01 10:37 9.01013 7.26550 1129 ft 131 kts 214°
2026-05-01 10:37 9.00500 7.26190 1127 ft 63 kts 215°
2026-05-01 10:38 9.00219 7.26010 1126 ft 25 kts 185°
2026-05-01 10:38 9.00094 7.26088 1126 ft 19 kts 72°
2026-05-01 10:38 9.00179 7.26169 1126 ft 14 kts 34°
2026-05-01 10:38 9.00252 7.26220 1126 ft 10 kts 35°
2026-05-01 10:39 9.00305 7.26258 1127 ft 8 kts 36°
2026-05-01 10:39 9.00345 7.26286 1127 ft 5 kts 36°
2026-05-01 10:39 9.00376 7.26309 1127 ft 7 kts 36°
2026-05-01 10:39 9.00430 7.26349 1127 ft 11 kts 37°
2026-05-01 10:40 9.00504 7.26405 1127 ft 13 kts 37°
2026-05-01 10:40 9.00573 7.26451 1127 ft 10 kts 32°
2026-05-01 10:40 9.00599 7.26500 1127 ft 7 kts 101°
2026-05-01 10:40 9.00579 7.26539 1127 ft 5 kts 126°
2026-05-01 10:41 9.00546 7.26577 1127 ft 6 kts 136°
2026-05-01 10:41 9.00511 7.26605 1127 ft 6 kts 143°
2026-05-01 10:41 9.00448 7.26644 1127 ft 4 kts 149°
2026-05-01 10:42 9.00414 7.26664 1127 ft 7 kts 149°
2026-05-01 10:42 9.00362 7.26695 1127 ft 10 kts 149°
2026-05-01 10:42 9.00293 7.26736 1127 ft 11 kts 149°
2026-05-01 10:42 9.00234 7.26779 1127 ft 9 kts 116°
2026-05-01 10:43 9.00239 7.26833 1127 ft 6 kts 65°
2026-05-01 10:43 9.00259 7.26868 1128 ft 4 kts 59°
2026-05-01 10:43 9.00265 7.26895 1128 ft 3 kts 105°
2026-05-01 10:43 9.00252 7.26908 1128 ft 2 kts 149°
2026-05-01 10:44 9.00238 7.26916 1128 ft 2 kts 150°
2026-05-01 10:44 9.00212 7.26930 1128 ft 4 kts 150°
2026-05-01 10:44 9.00188 7.26945 1128 ft 3 kts 141°
2026-05-01 10:44 9.00176 7.26965 1128 ft 2 kts 95°
2026-05-01 10:45 9.00186 7.26987 1128 ft 2 kts 47°
2026-05-01 10:45 9.00200 7.26992 1128 ft 1 kts 356°
2026-05-01 10:45 9.00208 7.26988 1128 ft 1 kts 318°
2026-05-01 10:45 9.00213 7.26983 1128 ft 0 kts 317°
2026-05-01 10:46 9.00220 7.26977 1128 ft 2 kts 324°
2026-05-01 10:46 9.00235 7.26968 1128 ft 2 kts 329°
2026-05-01 10:46 9.00243 7.26963 1128 ft 0 kts 329°